• en Belgique
  • Liste des pays
  • À 7 jours
  • Température de l'eau
  • Carte satellitaire
  • Carte météo
  • Widgets météo
  • user-avatar
    Se connecter

    Météo par heure à Kalgoorlie

    Ce jour, 25 Septembre, Lundi

    Heure Température Précipitation Vent Pression Humidité
    00:00 +14°C° 0,1 mm 4 m/s 722 mmHg 62%
    01:00 +14°C° 0,1 mm 4 m/s 722 mmHg 66%
    02:00 +14°C° 0 mm 4 m/s 722 mmHg 67%
    03:00 +14°C° 0,2 mm 4 m/s 722 mmHg 70%
    04:00 +13°C° 0,2 mm 4 m/s 722 mmHg 72%
    05:00 +13°C° 0,2 mm 4 m/s 722 mmHg 74%
    06:00 +14°C° 0,1 mm 5 m/s 722 mmHg 69%
    07:00 +14°C° 0,1 mm 6 m/s 722 mmHg 65%
    08:00 +14°C° 0 mm 6 m/s 723 mmHg 62%
    09:00 +15°C° 0,2 mm 7 m/s 722 mmHg 57%
    10:00 +15°C° 0,2 mm 8 m/s 722 mmHg 52%
    11:00 +16°C° 0,2 mm 9 m/s 722 mmHg 46%
    12:00 +16°C° 0,1 mm 9 m/s 722 mmHg 45%
    13:00 +17°C° 0,1 mm 9 m/s 722 mmHg 43%
    14:00 +17°C° 0,1 mm 8 m/s 721 mmHg 41%
    15:00 +17°C° 0 mm 8 m/s 721 mmHg 42%
    16:00 +17°C° 0 mm 8 m/s 721 mmHg 42%
    17:00 +16°C° 0 mm 8 m/s 721 mmHg 42%
    18:00 +16°C° 0,2 mm 8 m/s 721 mmHg 46%
    19:00 +15°C° 0,2 mm 7 m/s 721 mmHg 49%
    20:00 +15°C° 0,2 mm 7 m/s 721 mmHg 53%
    21:00 +14°C° 0,2 mm 7 m/s 721 mmHg 54%
    22:00 +14°C° 0,2 mm 7 m/s 721 mmHg 55%
    23:00 +12°C° 0,2 mm 7 m/s 721 mmHg 56%

    Demain, 26 Septembre, Mardi

    Heure Température Précipitation Vent Pression Humidité
    00:00 +12°C° 0 mm 7 m/s 721 mmHg 60%
    01:00 +11°C° 0 mm 7 m/s 721 mmHg 63%
    02:00 +11°C° 0 mm 7 m/s 721 mmHg 66%
    03:00 +10°C° 0 mm 7 m/s 721 mmHg 70%
    04:00 +9°C° 0 mm 7 m/s 721 mmHg 74%
    05:00 +9°C° 0 mm 7 m/s 721 mmHg 78%
    06:00 +9°C° 0 mm 8 m/s 722 mmHg 74%
    07:00 +9°C° 0 mm 8 m/s 722 mmHg 70%
    08:00 +10°C° 0 mm 9 m/s 723 mmHg 65%
    09:00 +11°C° 0 mm 9 m/s 723 mmHg 59%
    10:00 +12°C° 0 mm 10 m/s 723 mmHg 53%
    11:00 +14°C° 0 mm 10 m/s 723 mmHg 46%
    12:00 +14°C° 0 mm 10 m/s 723 mmHg 46%
    13:00 +14°C° 0 mm 11 m/s 723 mmHg 46%
    14:00 +14°C° 0 mm 11 m/s 723 mmHg 46%
    15:00 +14°C° 0 mm 11 m/s 723 mmHg 48%
    16:00 +14°C° 0 mm 11 m/s 724 mmHg 49%
    17:00 +13°C° 0 mm 11 m/s 724 mmHg 51%
    18:00 +12°C° 0 mm 9 m/s 725 mmHg 56%
    19:00 +12°C° 0 mm 8 m/s 726 mmHg 61%
    20:00 +11°C° 0 mm 7 m/s 727 mmHg 66%
    21:00 +10°C° 0 mm 6 m/s 727 mmHg 68%
    22:00 +9°C° 0 mm 6 m/s 728 mmHg 70%
    23:00 +9°C° 0 mm 6 m/s 728 mmHg 73%

    Après-demain, 27 Septembre, Mercredi

    Heure Température Précipitation Vent Pression Humidité
    00:00 +8°C° 0 mm 6 m/s 728 mmHg 75%
    01:00 +8°C° 0 mm 6 m/s 728 mmHg 78%
    02:00 +7°C° 0 mm 6 m/s 728 mmHg 80%
    03:00 +7°C° 0 mm 6 m/s 729 mmHg 81%
    04:00 +6°C° 0 mm 5 m/s 729 mmHg 81%
    05:00 +6°C° 0 mm 5 m/s 729 mmHg 82%
    06:00 +7°C° 0 mm 5 m/s 730 mmHg 73%
    07:00 +8°C° 0 mm 6 m/s 731 mmHg 65%
    08:00 +9°C° 0 mm 6 m/s 731 mmHg 56%
    09:00 +10°C° 0 mm 6 m/s 731 mmHg 48%
    10:00 +13°C° 0 mm 6 m/s 731 mmHg 40%
    11:00 +14°C° 0 mm 6 m/s 731 mmHg 31%
    12:00 +15°C° 0 mm 5 m/s 731 mmHg 29%
    13:00 +16°C° 0 mm 5 m/s 730 mmHg 26%
    14:00 +17°C° 0 mm 5 m/s 730 mmHg 23%
    15:00 +17°C° 0 mm 5 m/s 730 mmHg 23%
    16:00 +17°C° 0 mm 5 m/s 730 mmHg 24%
    17:00 +18°C° 0 mm 4 m/s 730 mmHg 24%
    18:00 +17°C° 0 mm 4 m/s 731 mmHg 27%
    19:00 +16°C° 0 mm 3 m/s 731 mmHg 31%
    20:00 +14°C° 0 mm 3 m/s 732 mmHg 34%
    21:00 +13°C° 0 mm 3 m/s 732 mmHg 39%
    22:00 +12°C° 0 mm 3 m/s 732 mmHg 44%
    23:00 +11°C° 0 mm 4 m/s 732 mmHg 50%

    28 Septembre, Jeudi

    Heure Température Précipitation Vent Pression Humidité
    00:00 +11°C° 0 mm 3 m/s 732 mmHg 53%
    01:00 +10°C° 0 mm 3 m/s 732 mmHg 57%
    02:00 +9°C° 0 mm 3 m/s 731 mmHg 61%
    03:00 +9°C° 0 mm 3 m/s 731 mmHg 64%
    04:00 +9°C° 0 mm 2 m/s 731 mmHg 67%
    05:00 +8°C° 0 mm 2 m/s 731 mmHg 70%
    06:00 +10°C° 0 mm 2 m/s 732 mmHg 66%
    07:00 +12°C° 0 mm 2 m/s 732 mmHg 62%
    08:00 +13°C° 0 mm 2 m/s 732 mmHg 59%
    09:00 +14°C° 0 mm 2 m/s 732 mmHg 51%
    10:00 +16°C° 0 mm 2 m/s 732 mmHg 43%
    11:00 +17°C° 0 mm 2 m/s 732 mmHg 35%
    12:00 +18°C° 0 mm 2 m/s 731 mmHg 31%
    13:00 +19°C° 0 mm 3 m/s 730 mmHg 28%
    14:00 +20°C° 0 mm 3 m/s 730 mmHg 24%
    15:00 +20°C° 0 mm 3 m/s 730 mmHg 24%
    16:00 +20°C° 0 mm 3 m/s 730 mmHg 23%
    17:00 +20°C° 0 mm 3 m/s 730 mmHg 23%
    18:00 +20°C° 0 mm 3 m/s 730 mmHg 24%
    19:00 +19°C° 0 mm 4 m/s 731 mmHg 25%
    20:00 +19°C° 0 mm 4 m/s 731 mmHg 26%
    21:00 +17°C° 0 mm 5 m/s 731 mmHg 30%
    22:00 +16°C° 0 mm 5 m/s 731 mmHg 34%
    23:00 +15°C° 0 mm 6 m/s 731 mmHg 38%

    29 Septembre, Vendredi

    Heure Température Précipitation Vent Pression Humidité
    00:00 +14°C° 0 mm 6 m/s 731 mmHg 42%
    01:00 +13°C° 0 mm 5 m/s 731 mmHg 46%
    02:00 +12°C° 0 mm 5 m/s 731 mmHg 51%
    03:00 +12°C° 0 mm 5 m/s 731 mmHg 54%
    04:00 +10°C° 0 mm 5 m/s 732 mmHg 58%
    05:00 +10°C° 0 mm 5 m/s 732 mmHg 61%
    06:00 +12°C° 0 mm 5 m/s 733 mmHg 58%
    07:00 +13°C° 0 mm 6 m/s 734 mmHg 56%
    08:00 +14°C° 0 mm 6 m/s 734 mmHg 53%
    09:00 +16°C° 0 mm 6 m/s 734 mmHg 46%
    10:00 +19°C° 0 mm 6 m/s 734 mmHg 39%
    11:00 +20°C° 0 mm 6 m/s 734 mmHg 33%
    12:00 +21°C° 0 mm 6 m/s 733 mmHg 31%
    13:00 +22°C° 0 mm 7 m/s 733 mmHg 28%
    14:00 +22°C° 0 mm 7 m/s 732 mmHg 26%
    15:00 +22°C° 0 mm 7 m/s 733 mmHg 27%
    16:00 +21°C° 0 mm 8 m/s 733 mmHg 29%
    17:00 +21°C° 0 mm 8 m/s 734 mmHg 30%
    18:00 +18°C° 0 mm 9 m/s 734 mmHg 35%
    19:00 +17°C° 0 mm 9 m/s 735 mmHg 41%
    20:00 +16°C° 0 mm 9 m/s 735 mmHg 46%
    21:00 +13°C° 0 mm 9 m/s 735 mmHg 50%
    22:00 +12°C° 0 mm 9 m/s 735 mmHg 55%
    23:00 +11°C° 0 mm 9 m/s 735 mmHg 59%

    30 Septembre, Samedi

    Heure Température Précipitation Vent Pression Humidité
    00:00 +11°C° 0 mm 8 m/s 735 mmHg 62%
    01:00 +10°C° 0 mm 8 m/s 735 mmHg 66%
    02:00 +9°C° 0 mm 7 m/s 735 mmHg 69%
    03:00 +9°C° 0 mm 7 m/s 736 mmHg 71%
    04:00 +8°C° 0 mm 6 m/s 736 mmHg 73%
    05:00 +8°C° 0 mm 6 m/s 736 mmHg 75%
    06:00 +9°C° 0 mm 6 m/s 737 mmHg 72%
    07:00 +9°C° 0 mm 7 m/s 737 mmHg 68%
    08:00 +10°C° 0 mm 7 m/s 738 mmHg 64%
    09:00 +12°C° 0 mm 7 m/s 737 mmHg 56%
    10:00 +15°C° 0 mm 7 m/s 737 mmHg 47%
    11:00 +17°C° 0 mm 7 m/s 736 mmHg 38%
    12:00 +18°C° 0 mm 7 m/s 736 mmHg 34%
    13:00 +20°C° 0 mm 6 m/s 735 mmHg 31%
    14:00 +21°C° 0 mm 6 m/s 734 mmHg 27%
    15:00 +21°C° 0 mm 6 m/s 734 mmHg 27%
    16:00 +21°C° 0 mm 6 m/s 734 mmHg 26%
    17:00 +21°C° 0 mm 6 m/s 735 mmHg 26%
    18:00 +20°C° 0 mm 6 m/s 735 mmHg 31%
    19:00 +18°C° 0 mm 7 m/s 735 mmHg 36%
    20:00 +16°C° 0 mm 7 m/s 736 mmHg 40%
    21:00 +15°C° 0 mm 7 m/s 736 mmHg 46%
    22:00 +14°C° 0 mm 7 m/s 735 mmHg 51%
    23:00 +12°C° 0 mm 8 m/s 735 mmHg 57%
    Voir plus